Lapse_Rate
6.6 6.4 6.3 6.4 6.1 5.7 5.6 5.7 5.8 5.8 5.6 6.1 6.2 6.1 5.9 5.5 5.6 5.9 6.0 6.1 6.3 6.2
6.3 5.9 6.0 5.8 5.6 5.3 5.3 5.6 5.7 5.8 5.8 5.9 6.2 6.3 6.3 6.0 6.1 6.0 6.1 5.9 6.1 6.3
5.9 5.9 5.9 5.6 5.6 5.4 5.5 5.7 5.9 6.2 6.3 6.1 6.0 6.4 6.5 6.5 6.5 6.3 6.1 6.2 6.2 6.2
5.9 6.0 5.9 5.7 5.6 5.6 5.8 6.0 6.1 6.2 6.5 6.5 6.5 6.2 6.4 6.5 6.5 6.4 6.3 6.6 6.5 6.4
6.0 5.9 5.6 5.5 5.7 5.8 6.0 6.3 6.1 6.3 6.4 6.6 6.6 6.5 6.6 6.4 6.5 6.5 6.4 6.7 6.8 6.7
5.5 5.0 4.7 5.4 5.8 6.2 6.4 6.3 6.1 5.8 6.1 6.6 6.6 6.7 6.7 6.8 6.4 6.4 6.9 6.8 7.0 6.8
4.6 4.6 5.5 5.7 6.3 6.4 6.4 6.3 6.2 6.4 6.0 6.3 6.3 6.2 6.4 6.5 6.6 6.6 6.8 6.9 6.9 6.8
4.8 5.0 5.8 6.3 6.4 6.3 6.5 6.0 6.3 6.2 6.2 6.3 6.2 6.3 6.8 6.6 6.7 6.6 6.7 6.7 6.6 6.3
5.2 5.8 6.0 5.9 6.2 6.5 6.2 6.1 5.9 6.0 6.4 6.1 6.6 6.6 6.7 6.7 6.9 6.6 6.5 6.5 6.8 6.9
5.5 5.7 5.5 5.6 5.9 6.6 6.3 6.0 6.2 6.4 6.6 6.5 6.6 6.6 6.7 6.7 6.5 6.7 6.8 6.5 6.6 6.4
5.6 5.7 5.7 6.0 6.4 6.3 6.4 6.5 6.3 6.2 6.2 6.5 6.9 6.5 6.5 6.5 6.5 6.7 6.4 6.7 6.3 6.5
5.5 5.4 5.5 5.7 6.4 6.1 6.2 6.5 6.4 6.4 6.2 6.2 6.5 6.6 6.7 6.7 6.5 6.6 6.7 6.5 6.4 6.4
5.5 5.3 5.4 5.2 5.8 5.8 5.9 6.3 6.4 6.2 6.3 6.4 6.3 6.6 6.6 6.5 6.6 6.6 6.6 6.4 6.6 6.4
5.6 5.1 5.0 5.1 5.2 5.6 5.9 6.1 6.1 6.1 6.4 6.5 6.5 6.6 6.6 6.5 6.4 6.3 6.4 6.4 6.2 5.9
Wind_Speed
6 4 4 4 5 6 6 6 7 6 7 7 7 7 8 8 9 11 11 13 10 6
8 8 8 7 6 6 8 8 8 8 8 8 8 7 8 8 10 10 11 12 10 8
10 8 8 7 8 9 8 7 6 7 8 10 8 7 8 9 11 12 10 8 11 11
10 9 8 7 8 7 8 8 10 11 12 11 9 8 9 12 10 13 11 9 11 11
10 9 8 6 7 6 10 11 12 11 10 9 10 9 12 11 11 12 10 9 9 10
7 6 7 8 8 9 9 10 11 9 10 10 9 10 12 12 9 9 10 10 10 10
7 7 7 7 8 8 9 9 10 6 8 10 8 8 8 9 8 7 6 5 7 9
7 6 6 7 8 8 8 8 9 5 6 6 6 7 10 10 10 10 9 8 8 7
7 7 7 6 7 7 8 7 8 8 7 7 4 12 15 14 10 9 10 9 7 7
6 6 6 7 8 8 8 7 8 7 8 9 8 17 20 16 10 10 9 10 9 8
6 6 6 7 8 8 7 8 8 8 9 11 10 18 23 19 12 10 10 10 9 9
5 4 6 7 7 6 7 8 8 8 10 10 11 19 21 15 10 11 10 9 9 8
4 5 6 6 6 6 7 8 7 10 10 14 11 16 17 13 7 10 8 9 9 15
5 5 5 5 5 6 7 7 8 9 8 8 9 10 17 14 7 7 7 7 5 5
Wind_Direction
296 298 292 285 286 279 263 253 244 247 235 238 228 222 226 215 212 207 200 192 198 195
317 312 299 287 281 278 268 257 244 242 243 235 229 224 217 218 210 207 200 199 190 196
299 286 285 281 277 277 272 275 268 252 239 241 223 219 218 223 210 206 199 198 184 195
300 298 292 284 287 297 290 280 276 266 257 242 231 218 223 227 203 204 189 182 180 188
306 306 300 306 307 290 299 289 270 258 254 234 233 227 222 204 195 193 180 179 178 175
317 337 337 328 325 318 310 298 287 252 236 233 227 217 205 195 177 184 180 171 175 170
345 340 329 328 322 318 315 310 303 261 252 232 219 182 152 134 121 114 104 122 161 172
333 330 337 337 330 324 334 342 341 13 360 100 122 127 132 124 119 114 101 86 78 75
337 344 339 340 343 342 354 5 17 23 36 33 75 117 124 120 117 114 112 104 100 92
343 348 344 360 2 0 359 16 36 39 57 64 68 103 98 95 103 103 105 109 106 93
353 1 4 21 15 8 10 28 43 52 67 78 83 95 97 90 93 93 90 90 94 103
356 10 30 31 22 19 37 43 44 64 72 83 86 89 94 95 93 91 86 89 95 101
9 27 40 41 36 37 47 46 52 62 65 83 89 98 98 95 98 97 98 91 95 104
32 38 39 45 52 59 58 56 54 60 59 68 76 90 96 104 103 106 101 100 92 103